Lapse_Rate
3.5 6.1 10.2 9.4 6.6 6.5 6.5 6.5 6.5 6.5 6.5 7.3 7.7 7.0 6.6 7.0 6.5 6.5 6.4 9.2 9.7 9.7 9.2 6.4 5.7 5.4 5.0 4.9 4.6 4.4 4.5 4.4 4.1 4.0 4.0 4.3 4.6 5.0 5.3 5.6 6.1 6.6 6.7 6.8 6.8 6.6 6.3 5.9 5.5
9.8 10.0 9.7 8.2 6.5 6.5 6.5 6.5 6.5 6.5 7.0 7.8 7.6 7.5 6.9 6.5 8.2 8.0 7.2 8.2 7.9 8.8 9.5 7.7 5.7 5.7 5.0 5.0 4.8 4.8 4.9 4.5 4.0 3.8 4.2 4.6 4.8 5.1 5.3 5.6 6.2 6.6 6.7 6.7 6.6 6.3 6.0 5.5 5.3
8.9 9.9 8.1 6.5 6.5 6.5 6.5 6.5 6.5 6.7 7.5 7.4 7.1 7.9 7.5 7.1 8.4 8.7 8.4 8.5 5.8 6.6 9.6 7.0 5.2 5.0 4.8 4.9 5.0 5.0 4.6 4.2 4.1 4.2 4.5 5.1 5.1 5.1 5.4 5.7 6.2 6.7 6.9 6.7 6.5 6.1 5.7 5.2 5.0
9.6 9.2 8.3 6.5 6.5 6.5 6.5 6.5 6.6 6.6 7.4 7.8 7.6 6.5 8.2 8.9 8.6 9.2 7.9 6.4 4.4 5.0 7.8 5.2 4.9 4.8 4.9 5.0 5.0 4.5 4.3 4.1 4.3 4.6 4.9 5.4 5.3 5.4 5.5 5.7 6.2 6.6 6.7 6.5 6.2 5.8 5.3 5.0 5.1
9.6 8.4 6.5 6.5 6.5 6.5 6.5 6.9 7.1 6.5 6.8 7.1 7.6 6.7 7.3 8.5 9.1 9.2 8.0 8.7 6.6 6.4 6.3 5.7 4.5 4.9 5.0 4.9 4.6 4.4 4.0 4.4 4.7 4.8 5.2 5.3 5.3 5.0 5.0 5.3 5.8 6.0 6.1 5.9 5.8 5.5 5.2 5.0 5.1
7.8 7.6 6.5 6.5 6.5 6.5 6.5 7.3 7.1 6.8 7.1 7.3 7.2 7.0 7.6 7.4 7.9 5.8 8.3 8.2 8.1 7.3 6.0 5.1 5.3 5.3 5.0 4.6 4.2 4.0 4.5 4.6 4.7 4.8 5.1 5.3 4.8 4.7 4.8 4.9 5.1 5.2 5.2 5.3 5.2 5.2 5.1 5.1 4.9
6.8 6.5 6.5 6.5 6.5 6.5 6.5 7.6 6.7 6.7 6.9 7.0 8.0 6.5 7.7 8.1 4.5 4.0 6.9 6.7 5.7 4.9 4.8 5.4 6.7 5.6 4.7 4.1 4.3 4.3 5.0 4.9 4.7 4.8 4.4 4.2 4.3 4.5 5.0 5.1 4.9 4.9 5.1 5.1 5.1 5.1 5.1 5.1 4.9
8.0 6.5 6.5 6.5 6.5 6.5 6.8 7.2 7.6 7.2 6.7 8.3 8.4 6.5 6.7 7.4 3.8 3.4 3.3 3.5 4.1 4.2 4.4 3.7 4.6 6.7 5.4 4.8 4.5 4.5 4.8 4.6 4.3 3.9 4.0 4.5 4.8 5.1 5.2 5.4 5.2 5.2 5.2 5.1 5.0 5.1 4.9 4.8 5.1
8.6 6.5 6.5 6.5 6.5 6.5 7.1 6.6 7.7 8.2 7.6 7.8 8.1 8.0 8.2 5.2 4.4 3.6 3.0 2.8 3.6 4.2 4.2 3.5 1.7 4.2 5.6 6.0 4.5 5.1 5.2 4.2 4.3 4.5 4.9 5.8 6.2 7.7 7.1 6.4 5.3 5.1 5.0 4.9 4.9 5.0 5.4 5.7 5.9
6.8 6.5 6.5 6.5 6.5 6.5 6.8 7.0 7.2 7.0 7.1 7.2 7.8 8.4 8.0 6.5 6.6 5.9 4.0 3.1 3.3 3.9 4.0 3.8 3.0 4.7 5.6 6.7 7.5 7.3 7.1 6.8 6.4 5.9 6.2 8.3 7.4 8.8 8.9 5.7 4.9 4.8 4.7 4.7 4.9 6.2 6.7 7.6 9.0
7.0 6.5 6.5 6.8 7.3 7.4 6.9 6.9 7.6 6.9 6.5 6.9 6.9 7.2 6.9 6.9 6.4 6.3 5.3 4.6 3.9 3.8 3.3 4.4 4.9 4.9 6.5 6.5 7.5 8.0 8.6 9.2 7.0 7.0 7.3 8.4 9.0 8.2 8.2 6.8 7.2 6.7 6.7 7.9 7.4 7.3 8.6 9.6 9.7
6.5 6.9 7.0 7.1 7.4 7.2 6.5 7.2 6.9 7.3 7.1 7.7 8.3 7.4 6.6 6.4 6.1 5.7 4.1 3.6 3.3 3.6 4.1 4.1 5.2 5.8 6.0 5.9 7.0 7.5 8.1 7.0 7.9 8.0 9.3 8.4 9.6 9.3 9.6 9.6 9.6 9.6 9.5 9.5 9.7 9.7 8.5 8.4 8.3
6.5 6.5 7.2 7.4 7.4 7.4 7.4 6.9 6.7 7.0 8.0 8.3 7.5 6.9 6.8 6.5 6.6 5.9 4.8 4.8 4.7 4.2 4.4 4.9 5.5 6.1 5.6 5.9 7.8 8.5 8.6 7.4 8.5 9.1 9.5 9.3 9.5 9.5 9.7 9.7 9.6 9.7 9.7 9.7 9.7 8.7 9.3 8.6 8.5
7.1 7.0 6.8 7.3 7.2 7.4 6.7 6.8 7.2 7.4 8.2 8.0 8.0 7.5 6.2 6.4 7.0 6.7 5.9 6.1 6.1 4.9 4.8 5.1 6.0 6.4 7.1 7.4 6.6 5.8 6.0 7.1 9.2 9.5 9.1 9.3 9.6 9.6 9.7 9.7 9.7 9.7 9.7 9.7 9.7 9.7 9.7 9.8 9.7
7.2 6.5 6.5 6.7 6.9 6.5 7.3 6.5 6.5 7.8 8.0 7.7 7.8 8.0 8.1 7.9 6.3 7.2 7.8 7.2 6.3 6.7 6.7 6.3 5.7 5.9 7.7 7.6 7.2 8.0 7.5 9.0 9.0 9.2 9.1 9.0 9.3 9.3 9.6 9.6 9.7 9.7 9.7 9.7 9.7 9.6 9.7 9.8 9.8
6.5 6.5 6.5 6.5 6.5 6.9 6.9 6.5 6.5 7.9 7.7 7.4 7.8 8.0 8.2 8.2 8.0 8.6 8.7 8.9 7.5 5.7 6.0 6.9 9.2 9.3 8.6 9.1 9.2 9.3 9.1 9.5 9.4 9.5 9.5 9.4 9.6 9.6 9.4 9.7 9.7 9.6 8.9 9.4 9.7 9.8 9.8 9.8 9.8
6.5 6.5 6.5 6.5 6.6 6.5 6.5 6.5 6.5 7.8 7.5 7.3 7.6 7.9 8.1 8.4 8.6 8.7 8.9 9.2 9.4 9.4 9.1 9.1 8.7 7.9 7.5 8.5 9.7 9.6 9.6 9.6 9.7 9.7 9.6 9.3 9.3 9.1 8.7 9.6 9.6 7.9 9.3 9.7 9.8 9.8 9.8 9.6 9.7
6.5 6.5 6.5 6.5 6.5 6.5 6.5 6.5 6.5 7.4 7.3 7.3 7.5 7.8 8.0 8.1 8.4 8.6 9.1 9.3 9.4 9.4 9.3 8.9 9.9 9.2 8.2 8.0 9.7 9.8 9.9 9.8 9.7 9.7 9.6 9.0 9.3 7.4 7.6 9.6 9.5 7.7 9.8 9.8 9.8 9.6 9.8 9.7 9.6
6.5 6.5 6.5 6.5 6.5 6.5 6.5 6.5 6.5 7.0 7.2 7.1 7.4 7.6 7.9 8.1 8.4 8.8 8.7 9.2 8.9 8.9 9.3 9.4 9.4 9.5 8.5 8.7 9.4 9.5 9.4 9.7 9.8 9.7 9.6 9.5 9.4 7.9 8.0 9.6 9.4 8.0 9.8 9.7 9.7 9.6 9.1 9.4 9.3
6.5 6.5 6.5 6.5 6.5 6.5 6.5 6.5 6.5 6.5 6.8 7.2 7.3 7.5 7.7 8.1 8.4 8.7 8.9 9.1 9.2 9.2 9.3 9.3 9.5 9.5 9.3 9.1 9.5 9.7 9.7 9.8 9.9 9.7 9.4 8.6 9.3 9.3 8.6 9.5 9.4 8.7 9.8 9.6 9.2 9.3 9.4 9.4 9.4
6.5 6.5 6.5 6.5 6.5 6.5 6.5 6.5 6.5 6.5 7.0 7.4 7.6 7.8 8.0 8.0 8.2 8.4 8.6 8.8 9.1 9.1 9.2 9.4 9.4 9.4 9.5 9.6 9.7 9.7 9.8 9.7 9.6 9.7 9.7 8.4 9.1 9.4 9.2 9.4 9.6 9.6 9.7 9.5 8.7 8.5 8.9 9.0 9.4
6.5 6.5 6.5 6.5 6.5 6.5 6.5 6.5 6.5 6.5 6.5 6.5 7.2 7.5 7.8 8.1 8.4 8.6 8.7 8.9 8.9 9.1 9.3 9.4 9.5 9.6 9.0 9.6 9.3 9.2 9.3 9.1 9.3 9.1 9.1 9.1 8.5 8.9 9.3 9.5 9.2 9.2 9.6 9.6 9.3 9.4 9.0 8.8 8.8
6.5 6.5 6.5 6.5 6.5 6.5 6.5 6.5 6.5 6.5 6.5 6.5 6.7 7.4 7.8 8.1 8.3 8.4 8.6 8.9 9.2 9.2 9.3 9.4 9.5 9.6 9.6 9.6 9.5 9.2 9.1 9.3 9.5 9.5 8.9 8.8 9.3 8.8 9.1 9.3 8.9 8.2 9.2 9.7 9.4 9.3 8.4 8.7 6.7
6.5 6.5 6.5 6.5 6.5 6.5 6.5 6.5 6.5 6.5 6.5 6.5 6.7 7.4 7.7 8.1 8.3 8.5 8.7 8.9 9.0 9.2 9.2 9.4 9.4 9.4 9.5 9.5 9.4 9.2 9.0 9.2 8.9 7.8 8.7 9.3 9.5 9.0 8.6 8.8 6.9 6.7 7.4 8.8 8.7 8.6 7.1 5.6 6.0
6.5 6.5 6.5 6.5 6.5 6.5 6.5 6.5 6.5 6.5 6.5 6.5 6.5 7.1 7.7 8.0 8.1 8.3 8.5 8.7 8.8 8.9 9.0 9.5 9.3 9.2 9.4 9.3 8.2 8.7 8.3 7.4 5.4 6.6 7.6 8.3 8.6 8.1 8.1 7.4 5.9 5.6 5.6 7.8 7.9 5.6 4.8 4.5 4.2
6.5 6.5 6.5 6.5 6.5 6.5 6.5 6.5 6.5 6.5 6.8 7.1 7.3 7.5 7.7 7.9 8.1 8.3 8.5 8.6 8.8 8.8 9.0 9.0 9.2 9.2 9.4 8.5 7.0 5.8 6.5 4.9 5.0 4.2 4.6 5.3 4.9 5.8 7.4 6.3 3.9 4.7 6.0 5.7 5.4 4.9 4.6 3.8 4.9
6.5 6.5 6.5 6.5 6.5 6.5 6.5 6.5 6.5 6.5 6.5 6.7 6.9 7.2 7.4 7.8 8.1 8.3 8.6 8.6 8.7 8.8 8.9 9.1 9.1 9.2 9.2 8.4 5.1 5.0 6.2 5.2 5.7 3.9 5.0 4.6 5.5 6.8 5.6 4.1 3.9 4.8 5.0 5.9 5.5 4.8 4.5 6.3 6.5
6.5 6.5 6.5 6.5 6.5 6.5 6.5 6.5 6.5 6.5 6.5 6.5 6.5 6.9 7.3 7.8 8.0 8.2 8.5 8.6 8.8 8.9 9.0 8.9 9.2 9.2 9.0 6.6 7.4 6.4 6.4 5.7 5.5 4.9 4.9 6.0 6.6 5.9 3.9 4.1 4.3 5.3 6.4 5.8 5.0 6.1 6.1 6.2 7.7
6.5 6.5 6.5 6.5 6.5 6.5 6.5 6.5 6.5 6.5 6.5 6.5 6.5 7.1 7.3 7.6 7.9 8.2 8.4 8.6 8.8 8.9 9.0 9.1 9.2 9.2 8.8 9.0 8.3 8.9 7.5 7.0 5.7 5.0 6.3 6.3 5.6 4.8 5.2 5.2 5.5 5.6 5.7 4.7 6.1 5.5 6.6 8.2 7.5
6.5 6.5 6.5 6.5 6.5 6.5 6.5 6.5 6.5 6.5 6.5 6.7 6.9 7.2 7.6 7.8 8.0 8.3 8.5 8.6 8.8 8.8 9.0 9.1 9.2 9.2 9.3 7.3 7.5 8.4 8.5 8.7 5.7 5.6 5.6 5.3 5.7 6.2 6.2 4.6 4.3 5.6 5.3 5.4 5.4 6.6 8.4 8.0 7.0
Wind_Speed
9 14 10 8 8 8 18 20 21 5 2 0 6 0 5 8 8 4 13 7 12 20 25 24 24 28 27 27 27 27 26 26 24 23 22 22 22 21 19 19 19 20 22 24 24 23 23 22 21
13 6 8 9 8 13 14 19 6 6 10 8 1 5 13 9 7 9 4 5 10 10 23 25 21 27 27 27 27 26 26 26 25 24 22 22 22 20 18 18 18 20 22 24 23 23 22 21 19
13 9 10 11 12 14 13 6 4 7 3 8 3 5 3 4 6 9 9 11 15 5 21 25 20 25 27 27 27 27 26 26 25 24 24 21 22 21 19 18 20 22 22 24 22 22 20 19 17
7 8 7 9 16 12 17 8 3 6 7 8 12 7 7 5 5 1 20 13 19 12 12 23 21 24 26 27 26 27 26 24 25 25 24 22 22 21 19 19 23 23 23 23 22 21 19 17 16
9 8 10 15 13 7 5 12 4 8 11 4 7 11 8 5 5 8 11 16 18 17 17 26 22 24 26 27 26 25 25 24 23 24 24 23 22 22 21 21 21 23 23 22 22 20 18 17 15
9 4 12 11 2 1 5 3 6 8 5 1 10 21 13 5 8 11 9 14 16 16 19 20 21 22 25 26 24 25 21 22 23 23 23 22 20 22 21 21 21 22 22 21 20 18 18 16 13
12 10 14 8 3 6 5 8 6 9 9 12 11 4 5 5 7 8 2 10 11 10 15 16 18 19 21 23 22 22 21 21 22 22 21 21 21 22 20 20 21 22 22 22 20 18 17 14 12
7 6 14 5 4 5 6 6 3 6 7 6 4 6 5 8 8 9 11 9 10 9 16 17 16 13 17 19 22 22 20 22 20 23 26 24 22 21 20 21 20 21 21 20 20 18 16 13 12
7 10 7 0 6 4 5 5 4 3 10 4 3 9 12 14 10 11 10 11 9 10 15 17 21 11 12 18 22 22 19 23 22 21 26 23 18 19 18 20 18 20 20 20 19 18 16 15 11
9 11 4 7 10 10 9 9 6 6 12 9 9 9 10 11 8 13 9 8 6 12 13 13 18 17 18 13 15 18 17 18 18 20 18 15 18 15 16 16 18 19 19 18 16 16 15 15 11
4 9 10 8 9 9 6 14 6 8 8 29 4 10 10 9 10 10 10 10 7 9 13 14 12 20 11 13 10 11 13 11 13 16 14 17 14 14 15 14 14 14 15 13 14 11 10 5 5
8 9 8 9 6 6 2 5 9 7 6 6 11 11 9 10 8 11 12 12 13 12 11 12 14 13 15 12 11 11 12 12 9 7 7 11 11 12 13 14 14 14 15 13 11 6 6 6 6
9 8 8 5 2 4 1 4 1 6 10 15 12 12 9 9 9 11 12 12 14 15 13 11 9 11 14 12 13 8 11 11 10 12 8 11 10 8 11 9 12 12 9 10 7 8 7 5 4
7 10 4 4 2 7 10 8 10 7 11 10 9 12 11 11 9 12 14 14 12 16 16 12 7 9 16 8 5 6 7 4 9 12 13 12 9 8 9 9 8 8 10 10 8 7 7 6 5
11 12 8 6 7 11 4 19 11 12 10 8 11 11 11 14 13 11 14 13 13 11 14 9 11 15 14 8 10 11 11 13 9 12 12 9 10 10 10 9 8 10 9 8 6 7 6 6 3
13 14 5 7 9 5 16 13 14 15 13 10 9 11 8 11 15 14 16 18 19 16 18 16 17 19 15 16 20 15 18 17 16 13 13 15 14 12 9 8 8 10 10 9 9 8 5 4 3
13 5 7 16 8 14 5 14 15 12 11 10 9 11 12 15 17 14 14 18 21 21 21 19 18 16 14 15 14 10 9 11 13 14 13 13 15 12 11 10 9 10 10 8 6 4 5 4 3
9 12 12 6 13 9 9 13 11 12 9 12 12 12 13 17 15 18 16 20 22 22 23 21 16 18 13 9 10 10 10 13 16 15 15 16 12 11 12 10 9 12 8 6 6 6 5 3 1
9 10 10 5 5 4 11 8 5 13 10 11 12 13 16 16 15 13 16 19 14 15 17 19 17 17 10 10 10 9 9 10 9 12 12 12 13 13 14 11 11 13 7 8 7 6 6 4 3
10 10 12 2 1 7 10 13 3 14 12 13 13 15 14 17 20 19 20 21 20 20 19 19 19 19 14 10 10 9 10 10 10 12 11 12 14 16 15 13 9 13 8 9 9 9 6 4 4
10 13 3 8 7 10 12 13 9 9 12 12 14 14 16 16 19 20 20 19 20 21 20 20 20 19 17 15 11 9 8 8 9 10 10 13 17 17 16 15 12 12 10 9 10 9 9 7 6
12 12 4 9 11 6 14 2 19 14 13 14 14 15 17 19 19 20 21 21 20 19 19 19 20 20 13 16 10 13 11 11 10 8 9 9 15 15 17 15 14 12 12 10 9 8 7 6 4
10 1 6 10 13 14 11 8 13 10 14 18 17 16 16 19 19 21 22 22 22 20 19 19 20 19 20 19 16 10 12 9 9 10 11 12 12 16 16 15 15 11 12 9 9 7 7 5 2
8 6 10 10 11 9 13 10 14 8 13 13 19 19 19 18 20 20 21 21 21 20 19 17 20 20 19 17 17 14 12 13 10 5 9 9 9 9 15 18 17 13 9 8 8 7 5 4 3
10 13 9 9 6 10 7 5 3 15 5 2 2 9 20 20 18 20 21 21 21 22 20 18 22 22 21 16 13 16 14 11 10 11 7 6 6 8 12 14 11 7 8 8 9 5 5 2 3
15 16 7 5 7 6 5 6 4 9 3 4 6 5 7 15 20 20 22 21 21 21 23 22 22 21 20 15 14 11 16 9 6 9 7 7 7 7 10 11 10 9 9 8 8 4 4 3 5
18 18 13 4 8 5 7 7 6 6 3 4 3 3 7 11 15 22 22 20 20 20 20 20 18 19 19 16 9 11 16 12 9 10 11 7 7 6 9 10 7 8 9 9 9 5 6 5 4
13 13 10 9 6 9 11 10 1 6 5 4 2 2 3 2 4 10 14 18 19 18 15 17 19 18 15 14 17 16 15 12 11 10 11 10 8 8 11 12 11 10 12 10 9 6 7 5 0
13 9 9 6 8 6 7 5 5 3 2 4 2 1 2 2 7 5 7 8 10 11 14 15 16 18 18 18 15 17 12 11 8 7 8 7 7 10 12 12 11 7 8 8 6 6 6 7 5
15 19 17 10 12 7 7 12 13 7 9 3 8 5 2 3 1 6 7 8 9 10 11 13 14 15 14 17 12 13 10 9 6 6 6 6 9 10 11 10 9 10 9 6 7 8 8 7 3
Wind_Direction
220 221 237 250 242 225 255 239 255 6 213 249 354 281 231 2 304 162 294 21 148 140 143 150 136 135 136 135 132 132 132 129 127 125 122 121 121 122 119 118 119 118 116 114 110 105 100 97 93
264 244 241 269 252 254 228 241 200 261 14 4 4 270 283 115 79 114 148 198 122 143 148 145 137 135 135 134 133 134 132 131 129 127 126 126 125 120 114 113 120 123 124 121 115 109 105 102 99
260 252 268 242 240 255 275 25 199 42 308 315 251 273 351 57 60 128 162 154 120 204 160 135 135 136 136 136 136 133 134 134 132 130 129 131 123 115 112 115 118 124 125 122 116 111 106 102 100
239 218 233 256 268 254 275 137 326 291 206 243 265 177 115 31 348 293 140 158 133 143 172 135 136 138 137 134 134 134 134 132 134 132 130 127 120 114 109 110 114 117 120 121 117 112 108 102 98
239 261 265 248 268 284 313 299 346 294 301 317 248 204 122 49 12 52 135 156 161 159 151 143 140 138 133 133 133 134 132 134 132 129 128 124 119 111 106 105 112 116 117 117 115 113 109 101 96
258 244 264 270 355 76 227 283 296 271 256 171 243 267 81 66 23 0 161 163 159 132 128 128 133 133 131 129 131 128 130 133 131 126 124 122 113 107 105 105 108 114 115 115 112 109 105 104 98
257 288 281 326 319 3 53 50 333 312 205 204 338 312 76 98 20 19 19 135 112 120 115 106 129 112 112 116 116 119 131 128 126 121 112 107 106 105 105 106 108 112 114 113 112 107 107 103 97
289 278 266 200 42 111 289 350 328 270 327 58 16 298 191 124 75 63 56 60 81 104 102 92 52 115 114 115 115 116 124 120 114 111 113 112 110 109 110 108 104 111 114 116 114 114 110 108 103
261 253 269 207 293 74 70 322 153 320 285 141 38 38 80 120 112 78 74 66 88 101 112 110 108 58 64 114 108 115 118 116 119 123 129 128 129 128 144 111 112 112 116 118 121 124 122 117 107
251 285 12 4 350 333 356 339 21 244 230 212 128 103 118 129 137 116 88 76 86 119 113 113 112 119 109 94 122 133 138 137 138 140 154 142 123 161 122 121 122 120 118 124 133 137 151 169 146
250 278 353 332 26 344 329 339 321 285 332 332 105 132 128 124 113 107 119 114 90 107 119 122 126 125 130 143 163 146 149 145 141 165 187 126 130 121 142 136 136 137 135 146 149 164 202 71 59
273 294 318 340 316 286 159 220 297 26 23 55 90 115 97 107 120 118 117 118 109 102 108 111 117 121 115 97 130 126 150 140 150 180 130 148 163 179 155 168 160 166 182 162 171 128 106 105 90
247 304 325 9 219 276 317 254 127 60 81 89 90 98 105 100 109 114 116 121 118 118 114 102 101 104 114 126 173 156 139 126 155 187 172 168 169 198 189 171 169 180 155 174 165 142 147 135 123
358 302 307 322 159 252 270 163 230 115 117 109 130 127 143 132 123 125 128 138 118 129 129 138 146 142 152 153 136 90 76 193 202 179 196 197 191 184 185 176 173 168 177 168 167 159 160 177 155
278 270 196 235 241 267 328 339 113 132 123 113 123 142 145 138 139 137 142 133 112 140 137 137 137 162 157 142 125 131 209 216 201 204 169 193 213 189 181 184 177 181 177 168 166 179 174 184 182
245 249 202 285 215 261 109 284 129 143 143 140 127 138 121 134 137 149 148 142 142 141 146 156 163 163 178 171 182 202 200 202 193 190 190 197 207 191 193 184 195 175 172 179 182 196 185 192 206
216 271 259 237 216 209 205 238 121 144 165 135 133 136 137 141 141 148 151 155 150 157 160 174 173 185 189 198 190 207 211 206 204 202 194 194 206 198 198 203 189 181 189 191 195 190 207 170 219
245 203 227 134 267 223 267 345 133 163 165 150 148 141 143 159 156 151 168 154 160 161 168 184 181 189 185 196 195 195 202 206 210 201 204 184 201 194 205 202 186 200 196 193 202 192 193 227 267
316 285 261 284 62 289 273 269 180 156 171 168 160 163 164 175 177 176 171 170 186 176 179 177 186 195 192 202 196 202 200 210 209 205 215 191 210 197 209 208 191 213 204 204 186 189 186 188 195
252 250 260 228 81 280 264 279 152 150 182 180 183 174 182 176 170 189 191 180 187 185 189 182 189 196 202 197 218 201 201 206 206 198 199 219 209 207 207 218 193 206 203 197 193 197 190 210 198
231 255 334 274 267 249 269 258 180 174 171 190 181 192 179 189 179 186 194 197 189 191 190 193 198 200 205 213 203 194 217 208 208 205 200 204 218 216 211 210 209 201 211 196 197 201 205 205 190
228 220 309 295 274 283 306 179 295 175 191 193 194 194 190 188 188 186 193 197 199 203 201 203 204 206 202 217 209 203 208 212 202 193 206 219 222 217 215 211 212 201 207 204 199 205 212 237 205
261 205 263 283 273 274 232 251 174 206 191 193 201 200 199 189 192 189 193 199 200 198 200 201 207 208 203 198 223 196 215 226 221 211 200 199 210 217 217 206 204 204 214 208 207 200 211 184 226
251 238 231 246 252 263 241 265 184 203 209 208 185 197 203 194 193 200 194 196 198 199 199 198 207 208 211 204 202 226 206 227 252 219 200 210 209 210 210 205 202 204 207 205 206 194 174 182 234
215 227 234 223 226 237 283 274 193 237 98 292 242 206 196 200 203 198 199 197 199 197 196 201 204 208 208 199 190 214 228 211 213 263 202 203 206 210 213 208 199 198 191 200 189 163 138 156 190
212 227 227 198 229 235 275 244 315 47 34 287 280 269 238 208 205 211 207 201 199 199 197 202 207 212 208 194 188 202 223 212 209 172 191 210 199 198 221 213 183 183 183 146 142 158 179 180 212
203 219 245 262 266 285 275 217 242 146 202 238 252 250 219 216 222 213 216 211 210 199 197 198 208 212 214 193 163 193 231 223 206 190 198 194 199 201 201 191 181 169 158 170 171 178 182 185 209
268 204 214 235 234 243 248 255 154 213 174 146 226 73 87 141 233 227 223 217 211 211 201 192 202 208 201 175 196 209 216 218 209 211 211 197 191 185 189 186 183 180 182 178 186 179 175 186 268
210 223 223 233 247 259 260 271 354 358 182 284 209 262 330 19 136 170 205 216 220 219 200 195 201 208 192 191 203 204 207 207 202 215 214 193 160 193 197 200 191 177 169 180 185 180 195 155 112
217 214 215 227 234 225 265 275 309 259 263 287 249 184 301 312 336 146 165 168 173 188 190 192 197 207 201 175 185 196 199 221 189 194 172 164 190 200 201 181 169 192 165 161 179 198 161 143 21